Tracking 19638 objects as of 20-May-2019
HD Live streaming from Space Station
objects crossing your sky now

DUMSAT

Track DUMSAT now!
10-day predictions
DUMSAT is classified as:


NORAD ID: 26086
Int'l Code: 2000-009A
Perigee: 575.7 km
Apogee: 602.3 km
Inclination: 64.9 °
Period: 96.3 minutes
Semi major axis: 6959 km
RCS: 1.3862 m2 (large)
Launch date: February 8, 2000
Source: Commonwealth of Independent States (former USSR) (CIS)
Launch site: TYURATAM MISSILE AND SPACE COMPLEX (TTMTR)
aabbcc
Your satellite tracking list
Your tracking list is empty




NASA's NSSDC Master Catalog

Two Line Element Set (TLE):
1 26086U 00009A   19139.73662981 -.00000115  00000-0  41588-5 0  9995
2 26086  64.8524 216.2553 0019149 278.3280  81.5664 14.95165954 51613
Source of the keplerian elements: AFSPC